TimeEST,TemperatureF,Dew PointF,Humidity,Sea Level PressureIn,VisibilityMPH,Wind Direction,Wind SpeedMPH,Gust SpeedMPH,PrecipitationIn,Events,Conditions,WindDirDegrees,DateUTC
12:53 AM,61.0,57.9,90,30.22,10.0,North,9.2,-,N/A,,Overcast,10,2013-12-27 05:53:00
1:53 AM,60.1,57.9,93,30.20,10.0,North,10.4,-,N/A,,Overcast,10,2013-12-27 06:53:00
2:53 AM,61.0,57.9,90,30.20,10.0,North,6.9,-,N/A,,Overcast,360,2013-12-27 07:53:00
3:45 AM,60.8,57.2,88,30.19,10.0,North,8.1,-,N/A,,Mostly Cloudy,10,2013-12-27 08:45:00
3:53 AM,61.0,57.9,90,30.19,10.0,North,8.1,-,N/A,,Mostly Cloudy,10,2013-12-27 08:53:00
4:11 AM,62.6,59.0,88,30.19,10.0,North,10.4,-,N/A,,Overcast,360,2013-12-27 09:11:00
4:33 AM,60.8,59.0,94,30.20,10.0,North,9.2,-,N/A,,Overcast,360,2013-12-27 09:33:00
4:53 AM,61.0,57.9,90,30.19,10.0,North,9.2,-,N/A,,Mostly Cloudy,10,2013-12-27 09:53:00
5:53 AM,63.0,60.1,90,30.20,10.0,North,9.2,-,N/A,,Overcast,10,2013-12-27 10:53:00
6:53 AM,64.0,61.0,90,30.20,10.0,NNE,9.2,-,N/A,,Overcast,20,2013-12-27 11:53:00
7:53 AM,64.9,61.0,87,30.23,10.0,North,10.4,-,N/A,,Overcast,10,2013-12-27 12:53:00
8:53 AM,66.0,61.0,84,30.24,10.0,North,11.5,-,N/A,,Mostly Cloudy,360,2013-12-27 13:53:00
9:53 AM,66.9,61.0,81,30.27,10.0,North,13.8,-,N/A,,Overcast,360,2013-12-27 14:53:00
10:53 AM,69.1,62.1,78,30.27,10.0,North,12.7,-,N/A,,Overcast,10,2013-12-27 15:53:00
11:53 AM,71.1,62.1,73,30.25,10.0,NNE,12.7,-,N/A,,Overcast,20,2013-12-27 16:53:00
12:53 PM,70.0,63.0,78,30.22,10.0,NNE,13.8,-,N/A,,Overcast,20,2013-12-27 17:53:00
1:53 PM,70.0,64.0,81,30.21,10.0,North,10.4,-,0.01,,Mostly Cloudy,360,2013-12-27 18:53:00
2:53 PM,72.0,64.0,76,30.18,10.0,NNE,13.8,-,N/A,,Overcast,20,2013-12-27 19:53:00
3:53 PM,71.1,64.0,78,30.18,10.0,NE,13.8,-,N/A,,Overcast,40,2013-12-27 20:53:00
4:53 PM,70.0,63.0,78,30.19,10.0,NNE,12.7,-,N/A,,Overcast,30,2013-12-27 21:53:00
5:34 PM,69.8,62.6,78,30.21,10.0,NNE,13.8,-,N/A,,Overcast,20,2013-12-27 22:34:00
5:53 PM,68.0,63.0,84,30.22,10.0,North,12.7,-,N/A,,Overcast,10,2013-12-27 22:53:00
6:47 PM,66.2,62.6,88,30.23,10.0,NNE,10.4,-,N/A,,Overcast,30,2013-12-27 23:47:00
6:53 PM,66.9,63.0,87,30.23,10.0,NNE,12.7,-,N/A,,Overcast,30,2013-12-27 23:53:00
7:53 PM,66.9,63.0,87,30.26,10.0,North,12.7,-,N/A,,Overcast,10,2013-12-28 00:53:00
8:11 PM,66.2,62.6,88,30.26,10.0,NNE,12.7,-,N/A,,Overcast,20,2013-12-28 01:11:00
8:23 PM,66.2,62.6,88,30.26,10.0,NNE,13.8,-,N/A,,Overcast,30,2013-12-28 01:23:00
8:53 PM,64.9,62.1,90,30.25,10.0,NNE,10.4,-,N/A,,Mostly Cloudy,20,2013-12-28 01:53:00
9:53 PM,66.0,62.1,87,30.25,10.0,NNE,11.5,-,N/A,,Overcast,20,2013-12-28 02:53:00
10:53 PM,66.0,63.0,90,30.25,8.0,NNE,9.2,-,N/A,,Overcast,20,2013-12-28 03:53:00
11:53 PM,66.0,63.0,90,30.23,8.0,NNE,11.5,-,N/A,,Overcast,20,2013-12-28 04:53:00